SL-8 DEB, 22843

Orbit data source: Space-Track

SL-8 DEB, 22843 is space debris in LEO originally from a launch on Tue, 12 Feb 1991 UTC launched from the Plesetsk Missile And Space Complex (PKMTR). Debris objects in space refer to the collection of defunct objects orbiting the Earth. Examples of debris include non-operational satellites, rocket bodies, and fragments generated from explosions, collisions, or faulty payload assembly.

Loading next visibility...
Identifier
22843, 1991-009CN
Orbit
LEO
Country
Flag of CISCIS
Related business
Manufacturer
Unknown
Mission
Spacecraft
Bus & Motor
Unknown
Mass
Unknown
Launch date (UTC)
1991-02-12 (35 years ago)
Launch vehicle
Unknown
Launch site
Plesetsk Missile And Space Complex (PKMTR)
Object type
Payload
Rocket body
Debris
Shape & HBR
Unknown shape, 1.1 m
Radar Cross Section
Medium (>0.1 m² and <1 m²)

Expand to show TLE details & history
Last TLE update: 1 week ago

TLE from 1 week ago
0 SL-8 DEB
1 22843U 91009CN  26164.30665832  .00000777  00000-0  53483-2 0  9996
2 22843  74.0225  23.4149 0245039  90.5715  29.9759 12.39869458492375
Epoch: 2026-06-13T07:21Z
TLE epoch observation values (Epoch: 2026-06-13T07:21:35.278Z)
Latitude
54.72709°
Longitude
167.64298°
Altitude
1,349.616 km
Speed
7.264 km/s
True Right ascension
11h 58m 39s
True Declination
54° 34' 38"
Sunlit
Object was in daylight at epoch
Visualization orbit readout
Latitude
Unknown
Longitude
Unknown
Altitude
Unknown
Speed
Unknown
Apparent Right ascension
Unknown
Apparent Declination
Unknown
Sunlit
N/A
Visualization observer readout
Local Sidereal Time
00:51:04
Azimuth
Unknown
Elevation
Unknown
Doppler factor
Unknown
Orbital elements
Apogee altitude
1,698.17 km
Perigee altitude
1,311.834 km
Semi-major axis
7,883.139 km
Eccentricity
0.0245
Inclination
74.0225°
RAAN
23.4149°
Arg. of periapsis
90.5715°
True anomaly
31.41689°
Mean anomaly
29.9759°
Eccentric anomaly
30.69253°
Mean motion
3.10095 °/min
Orbital period
116.09 mins
BSTAR
0.0053483
Loading maneuver chart data...
Computing Atmospheric mass density...
Loading historical data...
Loading historical data...
Loading historical data...
Loading historical data...
Loading historical data...
Loading historical data...
Loading historical data...

Documentation

Showing up to 5 results
|